PulseSat

PulseSat

GSAT0216 (GALILEO 20)

Last updated on April 22, 2019, 2:58 a.m. UTC

1 43056U 17079B   19110.31573241 -.00000035  00000-0  00000+0 0  9998
2 43056  56.6082 293.4139 0001809 258.6922 101.2613  1.70474120  8390
UTC
Height (km)
Latitude
Longitude
Inclination
Orbital Period

Next 30 passes for location: Hong Kong

Rise time Rise Azimuth (degrees) Set time Set Azimuth (degrees) Duration Max altitude (degrees)

No matching passes for this satellites

PulseSat

PulseSat is the new satellites software and hardware trackering solution by Pulsely.
Satellite Two Line Element Set source: US Air Force Space Command

Download PulseSat for iOS
© 2017 Pulsely Limited